Lapse_Rate
6.1 6.0 5.9 5.8 5.6 5.6 6.2 7.0 7.2 7.2 7.1 7.1 6.7 7.0 7.5 7.5 7.2 7.2 7.1 6.9 7.4 7.3 6.9 7.0 6.9 6.7 6.7 6.6 6.6 6.5 6.3 6.1 6.0 5.9 5.8 5.7 5.5 5.5 5.7 5.6 5.7 5.9 6.1 6.0 6.1 6.2 6.2 6.3 6.4
6.1 6.0 5.9 5.8 5.4 5.8 6.6 7.4 7.3 7.2 7.0 6.8 7.1 7.0 7.2 7.3 7.1 7.2 7.4 7.3 7.4 7.3 7.0 6.9 7.1 6.9 6.7 6.5 6.5 6.4 6.3 6.2 6.1 6.0 5.9 5.8 5.7 5.6 5.7 6.0 6.0 5.9 5.9 5.9 6.0 6.1 6.2 6.4 6.5
6.3 6.0 5.8 5.4 5.5 5.9 6.6 7.5 7.6 6.7 6.9 7.0 6.9 7.0 7.1 6.9 6.5 7.1 7.4 7.4 7.2 7.4 7.1 6.9 6.9 7.0 6.9 6.7 6.5 6.3 6.2 6.2 6.0 6.0 6.0 6.0 6.0 5.9 5.8 5.8 5.9 5.9 5.9 5.9 6.0 6.1 6.2 6.3 6.4
6.4 6.1 5.9 5.6 6.0 6.7 6.8 7.4 6.6 6.5 6.8 6.7 6.9 7.2 7.3 6.9 6.9 7.5 7.4 7.5 7.4 7.3 7.2 7.0 7.0 6.8 6.9 6.8 6.7 6.6 6.3 6.2 6.2 6.0 6.0 6.0 6.1 6.1 5.9 5.9 5.9 6.0 6.0 6.0 6.0 6.1 6.3 6.4 6.4
6.2 6.0 5.5 5.7 6.1 6.5 7.1 7.3 6.9 6.8 6.8 6.7 6.9 7.6 7.2 7.1 7.0 7.2 7.2 7.3 7.3 7.2 7.4 7.2 7.1 7.1 7.0 6.9 6.8 6.7 6.6 6.5 6.4 6.2 6.0 6.0 6.1 6.2 6.2 6.1 6.2 6.0 6.0 6.0 6.1 6.2 6.3 6.4 6.3
5.9 6.1 5.6 5.8 6.2 6.7 7.1 7.3 7.1 6.9 6.8 6.8 6.9 7.5 7.1 7.0 7.1 7.4 7.3 7.2 7.3 7.4 7.4 7.3 7.3 7.3 7.2 7.2 7.2 7.0 6.9 6.7 6.7 6.6 6.4 6.4 6.4 6.5 6.4 6.3 6.2 6.2 6.2 6.2 6.2 6.3 6.3 6.3 6.4
5.9 5.5 5.6 6.0 6.4 6.8 7.3 7.5 7.1 6.9 6.9 6.9 7.0 7.2 7.5 6.7 7.2 7.3 7.4 7.3 7.3 7.2 7.5 7.3 7.3 7.3 7.2 7.2 7.0 7.1 7.1 7.0 6.8 6.7 6.7 6.7 6.8 6.7 6.8 6.7 6.5 6.4 6.4 6.3 6.4 6.4 6.4 6.4 6.4
5.7 5.5 5.4 5.8 6.2 6.7 7.2 7.5 6.9 6.5 6.6 7.1 7.0 7.2 7.5 6.6 7.0 7.3 7.4 7.6 7.5 7.4 7.4 7.4 7.2 7.1 7.1 7.1 7.0 6.8 6.9 7.0 7.0 6.9 6.9 6.7 6.8 6.8 6.8 6.8 6.7 6.6 6.5 6.4 6.4 6.4 6.4 6.4 6.4
5.5 4.8 5.0 5.6 6.2 6.6 7.0 7.1 6.8 6.5 6.5 6.8 6.7 7.2 7.0 6.8 7.0 7.4 7.4 7.4 7.3 7.3 7.3 7.5 7.3 7.0 7.0 7.0 7.0 6.8 6.7 7.2 7.2 7.1 6.9 6.8 6.7 6.9 6.8 6.8 6.7 6.6 6.5 6.4 6.4 6.5 6.5 6.5 6.4
5.3 5.1 5.4 6.0 6.2 6.5 6.6 6.6 6.4 6.0 6.2 6.3 6.5 6.9 6.6 7.0 7.2 7.4 7.4 7.4 7.4 7.4 7.4 7.2 7.3 7.4 7.1 7.0 7.1 6.8 6.8 6.9 7.2 7.2 7.0 6.9 6.9 7.0 6.8 6.9 6.9 6.7 6.6 6.5 6.5 6.4 6.4 6.4 6.5
5.4 5.2 5.6 6.2 6.1 6.1 6.3 6.4 6.2 6.2 5.8 6.0 6.6 6.6 6.5 6.8 7.0 7.1 7.5 7.4 7.5 7.5 7.4 7.3 7.1 7.2 7.4 7.2 7.3 7.1 6.9 7.1 7.2 7.0 7.2 7.1 6.9 6.9 7.1 7.1 7.0 6.9 6.8 6.7 6.7 6.5 6.5 6.5 6.5
4.8 4.8 5.5 6.1 5.8 5.3 5.7 6.1 5.7 5.7 5.7 5.8 6.2 6.4 6.5 6.3 6.4 7.0 7.3 7.4 7.2 7.5 7.5 7.4 7.3 7.1 7.4 7.3 7.3 7.1 7.0 7.1 7.2 7.1 7.2 7.2 7.1 7.0 7.0 7.0 7.1 7.1 6.9 6.9 6.8 6.8 6.7 6.6 6.5
4.4 4.7 5.1 5.2 5.6 5.0 5.2 5.4 5.9 5.5 5.4 6.0 6.2 6.2 6.5 6.0 6.4 6.7 6.6 7.1 7.2 6.5 7.5 7.6 7.3 7.1 7.1 7.1 7.2 7.0 7.1 7.5 7.2 7.4 7.2 7.1 7.1 7.1 7.1 7.1 7.0 7.1 7.0 6.9 6.8 6.6 6.6 6.5 6.6
4.5 4.4 4.6 5.1 5.0 5.4 5.1 5.5 5.1 5.5 6.7 6.0 6.0 6.0 6.1 6.3 6.4 6.5 6.5 6.5 6.9 6.8 7.0 7.4 7.5 7.3 7.0 7.1 7.2 7.2 6.9 7.2 7.3 7.4 7.2 7.3 7.2 7.1 7.2 7.2 7.1 6.9 6.9 6.9 6.8 6.7 6.7 6.7 6.7
4.6 4.7 5.0 5.1 6.0 5.6 5.4 4.9 4.9 6.1 6.2 6.1 6.2 6.3 6.2 6.5 6.8 6.6 6.7 6.3 6.4 6.9 6.9 7.0 7.1 7.3 7.1 7.0 7.0 7.1 6.9 6.9 7.0 7.2 7.2 7.3 7.2 7.3 7.0 7.1 7.2 7.0 7.0 6.9 6.9 7.0 6.9 6.9 6.8
5.1 4.6 4.9 5.8 6.0 5.7 4.7 4.6 6.0 5.0 5.6 5.9 6.2 6.0 6.1 6.5 6.7 6.8 6.8 6.7 6.3 6.4 6.6 6.7 6.9 7.0 7.2 7.1 7.0 7.0 7.0 6.7 6.9 6.9 6.9 7.1 7.2 7.2 7.1 7.0 7.1 7.0 7.0 6.9 6.9 6.9 6.9 6.9 6.8
5.0 5.1 5.6 5.6 5.8 5.3 4.8 4.5 5.5 4.9 5.4 5.0 5.1 5.3 5.8 6.3 6.4 6.5 6.7 6.7 6.8 6.4 6.4 6.0 6.2 7.0 7.0 7.1 6.9 7.0 6.9 6.8 6.8 6.9 6.8 7.0 7.1 7.1 7.0 7.0 7.0 6.9 6.8 6.9 6.8 6.9 6.9 6.8 6.8
5.7 5.4 5.6 5.9 5.5 5.6 4.9 4.4 4.7 5.2 4.9 5.0 5.3 5.9 6.0 6.0 6.1 6.7 7.0 6.9 6.8 6.7 6.4 6.2 6.0 6.2 6.8 7.0 7.0 6.9 6.9 7.0 7.1 7.0 7.1 7.1 6.9 6.9 6.9 7.0 7.0 6.9 6.8 6.7 6.6 6.6 6.8 6.8 6.7
5.3 5.2 5.5 6.0 5.8 5.2 4.9 4.4 4.7 5.7 5.4 6.5 5.9 6.0 6.5 6.8 6.8 6.5 6.4 6.8 7.1 6.8 6.5 6.2 6.1 6.1 6.4 6.7 6.9 7.1 7.1 7.0 6.9 7.0 7.1 7.0 6.9 6.9 6.8 6.9 7.0 6.9 6.6 6.5 6.5 6.5 6.7 6.7 6.6
5.2 5.1 5.3 5.6 5.7 4.8 5.1 5.6 5.8 6.3 6.8 6.6 6.7 6.8 7.1 6.8 6.9 7.0 6.5 6.2 6.7 6.9 6.7 6.2 6.1 6.1 6.6 6.4 6.5 6.8 6.9 6.8 7.0 7.2 6.9 6.9 6.9 6.8 6.7 6.9 6.9 6.6 6.5 6.3 6.2 6.4 6.5 6.4 6.3
5.4 5.1 5.2 5.2 5.2 5.1 5.1 5.6 7.0 6.4 6.5 7.0 7.1 7.0 7.0 7.0 6.9 7.0 7.0 6.9 6.4 6.8 6.6 6.5 6.0 6.0 6.5 6.5 6.2 6.5 6.7 6.8 6.9 7.2 7.1 7.0 6.8 6.7 6.8 6.9 6.7 6.4 6.3 6.2 6.1 6.2 6.3 6.4 6.2
5.1 5.2 5.3 5.3 4.9 4.9 4.9 4.0 6.3 6.8 6.6 6.6 7.1 7.6 6.9 6.5 6.7 6.9 7.0 7.0 6.8 6.8 6.9 6.0 6.2 6.1 6.3 6.3 6.3 6.4 6.5 6.7 6.8 6.8 7.0 6.8 6.8 6.7 6.8 6.8 6.8 6.3 6.1 6.1 6.0 6.0 6.0 6.1 6.1
5.0 5.0 5.0 4.8 4.5 4.1 4.9 4.3 5.6 6.2 6.5 6.6 6.4 6.2 6.1 6.1 5.9 6.1 6.4 6.5 6.1 6.3 6.1 6.7 5.7 5.7 6.0 6.5 6.5 6.4 6.3 6.5 6.7 6.7 6.7 6.7 6.7 6.8 6.8 6.5 5.9 5.9 6.0 6.0 6.0 6.0 5.9 5.9 6.0
4.6 4.4 4.5 4.3 3.9 3.0 4.8 5.2 6.3 5.9 6.6 6.5 6.5 6.6 6.1 6.1 5.8 5.6 5.6 5.7 6.1 6.4 5.9 5.8 5.7 5.5 5.4 6.3 6.6 6.4 6.3 6.4 6.7 6.8 6.7 6.8 6.7 6.8 7.0 6.4 6.0 5.9 5.9 5.9 5.9 5.9 5.9 5.9 5.9
4.2 4.2 4.3 4.0 3.8 3.1 6.2 4.8 5.0 6.4 6.6 6.4 6.4 6.4 6.3 6.3 6.3 6.2 5.7 5.4 6.0 6.0 6.5 5.8 5.5 5.5 5.5 6.0 6.3 6.4 6.4 6.4 6.7 6.7 6.5 6.6 6.7 6.5 6.6 6.0 6.3 5.9 5.9 5.9 5.9 5.9 5.9 5.9 5.9
4.1 4.2 5.1 4.7 3.9 4.2 5.3 4.5 5.3 6.1 6.0 6.3 6.5 6.5 6.6 6.5 6.7 6.5 6.3 6.2 6.0 6.2 6.2 6.1 5.4 5.4 5.6 5.9 6.2 6.3 6.1 6.5 6.6 6.6 6.4 6.3 6.5 6.7 6.3 5.8 6.1 5.9 5.9 6.0 6.0 6.1 6.0 6.0 6.1
4.1 4.1 5.1 4.6 4.7 3.9 4.5 5.5 5.9 6.6 6.9 6.7 6.6 6.8 7.1 7.2 7.4 7.0 6.6 6.5 6.4 6.2 6.0 6.1 5.3 5.6 5.8 5.9 6.3 6.1 6.3 6.6 6.6 6.6 6.4 6.3 6.6 6.5 6.1 6.0 5.9 6.1 6.0 6.0 6.1 6.1 6.2 6.2 6.3
4.3 4.7 4.4 4.4 3.2 3.9 5.1 5.8 6.2 6.8 7.1 6.9 6.6 7.3 7.4 7.3 7.8 7.8 7.0 6.5 6.8 6.8 6.5 6.1 5.4 5.7 5.8 6.0 6.1 6.2 6.6 6.6 6.4 6.3 6.4 6.5 6.4 6.2 6.3 6.6 6.4 6.1 6.0 6.0 6.2 6.3 6.3 6.3 6.2
4.7 4.4 4.3 4.2 4.2 3.8 3.8 5.1 6.5 7.1 7.1 6.8 6.9 7.5 7.7 7.9 8.1 8.0 8.0 7.3 7.1 7.0 6.6 6.2 5.9 5.7 5.6 6.1 6.1 6.5 6.6 6.4 6.2 6.5 6.5 6.5 6.3 6.3 6.7 6.5 6.3 6.1 6.1 6.2 6.2 6.3 6.3 6.3 6.3
4.6 4.6 4.4 4.1 4.8 4.5 4.9 3.5 5.8 6.8 6.3 6.9 6.8 7.6 8.0 7.9 7.7 7.6 7.8 7.9 8.0 7.6 7.0 6.7 6.2 5.8 5.8 6.2 6.5 6.5 6.4 6.2 6.4 6.4 6.3 6.1 6.3 6.6 6.6 6.3 6.1 6.0 6.1 6.2 6.3 6.3 6.4 6.4 6.4
Wind_Speed
17 19 5 3 2 4 7 10 2 2 2 4 6 5 7 9 2 3 6 6 17 16 21 19 20 18 17 15 13 11 10 11 13 14 15 14 13 12 12 12 12 12 12 12 12 11 11 11 11
11 15 3 3 3 6 7 13 6 3 4 8 7 6 7 5 8 8 7 5 15 17 20 20 21 19 18 16 13 12 10 13 13 13 12 11 10 10 12 12 12 12 12 12 12 12 11 11 10
10 12 2 3 5 10 8 6 5 6 7 3 4 6 6 3 7 7 9 9 14 17 20 20 21 20 19 17 15 13 12 11 12 12 11 11 9 10 11 11 11 11 11 10 9 9 9 9 9
5 3 4 5 12 11 17 15 6 5 3 4 6 5 4 6 4 9 10 9 10 16 21 26 22 20 18 16 15 14 12 11 12 11 10 7 7 9 9 11 11 10 9 8 8 8 8 7 6
3 3 6 8 14 15 16 12 6 0 6 1 4 7 3 6 11 10 9 8 9 13 21 24 24 23 19 17 14 13 13 12 12 10 11 11 8 4 8 13 11 9 8 7 7 7 7 6 5
3 3 5 12 15 14 13 15 7 6 8 7 3 7 2 10 9 10 8 7 9 16 17 20 25 22 21 18 15 13 13 13 11 9 8 8 6 3 12 12 10 9 7 7 6 6 5 7 7
7 7 10 12 13 14 12 11 4 4 7 9 5 4 1 9 9 9 8 9 9 14 15 15 17 21 22 19 17 15 12 11 11 10 8 9 8 13 15 13 10 8 7 6 9 9 7 6 5
5 6 14 12 11 15 10 8 8 3 7 6 5 2 3 6 6 8 7 8 7 8 16 14 16 16 15 15 19 18 14 12 11 10 12 10 10 13 14 13 10 8 8 7 7 7 6 5 4
6 7 11 15 14 12 10 7 3 4 6 8 4 5 8 6 5 7 6 6 6 6 9 14 14 16 17 16 15 16 17 13 12 13 12 10 10 13 12 12 11 10 8 8 6 5 3 2 1
6 8 11 11 11 9 12 6 4 2 9 6 7 5 10 7 5 7 7 7 8 8 7 8 15 15 15 15 16 12 13 15 15 13 14 13 11 11 14 14 12 11 10 8 6 4 1 3 4
8 12 9 13 16 5 8 12 4 7 5 6 8 8 9 8 8 7 8 9 9 9 6 7 7 12 13 9 13 12 11 11 13 18 16 13 14 12 13 12 11 10 11 9 7 3 6 4 4
16 11 14 15 15 6 5 9 10 10 7 9 11 9 2 7 7 9 8 7 9 10 10 9 8 8 11 11 8 10 8 12 9 13 17 10 7 7 7 8 11 10 8 6 6 5 4 5 8
11 15 12 9 9 6 8 9 11 14 12 10 11 11 8 4 6 8 7 9 7 8 10 11 8 7 9 9 7 5 6 7 9 12 13 15 6 4 6 6 9 7 9 7 5 6 6 6 6
4 8 11 12 9 8 11 12 11 9 12 13 14 13 10 8 8 9 9 7 6 7 9 10 11 9 6 9 8 6 5 10 10 11 11 15 13 6 5 4 4 7 8 8 7 4 3 3 4
6 9 11 13 13 9 5 14 16 19 17 16 15 13 14 12 11 11 10 9 9 7 9 9 11 13 11 9 7 6 4 9 4 10 13 13 11 11 9 4 3 6 7 9 8 6 5 4 4
4 9 7 9 19 13 12 12 11 10 18 20 17 14 13 13 15 16 14 11 9 8 9 11 12 14 15 13 8 6 6 5 8 10 9 11 15 17 10 5 4 8 8 7 4 3 3 4 4
7 6 11 8 7 5 8 6 13 11 6 6 9 9 12 13 13 11 11 11 10 9 9 9 14 15 15 13 9 8 6 6 7 11 9 12 15 17 11 5 7 10 6 4 3 3 3 3 4
5 9 8 8 4 3 8 11 11 12 12 9 9 8 8 9 9 11 13 11 9 9 9 9 8 11 12 10 9 5 5 5 7 7 9 16 15 16 10 8 8 10 4 3 3 3 3 3 3
11 8 12 8 9 8 9 14 14 13 13 15 12 12 13 14 12 8 8 9 8 10 9 10 10 9 8 10 11 9 8 5 5 6 11 14 15 17 11 5 5 7 5 4 3 2 5 5 4
7 7 11 11 11 7 9 18 17 21 18 17 15 14 15 11 10 9 10 8 9 9 9 9 9 11 9 8 10 7 7 6 7 6 6 9 14 15 13 8 6 7 5 6 4 4 2 2 4
7 7 9 11 11 10 12 15 10 9 19 20 21 20 14 13 12 11 11 11 9 12 9 8 9 10 11 8 8 7 6 6 4 5 4 3 8 13 13 12 6 6 5 5 4 4 4 2 1
6 4 5 6 6 4 7 7 7 9 6 8 9 9 9 10 11 12 13 13 9 12 12 8 8 9 10 15 12 17 11 10 4 7 5 4 8 10 14 13 11 6 5 6 4 4 2 3 2
2 6 5 5 6 7 5 4 7 9 9 7 6 9 9 9 8 8 10 12 11 8 10 12 9 9 10 16 15 11 10 7 8 7 11 5 6 10 12 14 10 6 5 5 6 4 4 2 2
6 1 2 4 1 4 11 9 11 7 10 4 3 7 5 6 6 4 4 6 6 9 8 8 12 8 9 16 16 16 16 14 11 12 10 8 7 7 7 12 9 8 6 6 5 4 5 3 3
4 3 1 3 3 7 2 8 15 11 11 8 3 4 8 8 4 4 6 7 8 8 9 8 11 10 10 16 16 17 16 17 16 15 12 13 9 7 9 9 7 5 6 7 6 5 4 3 2
10 6 3 5 3 4 3 8 6 6 6 6 5 7 7 8 6 3 4 6 9 9 9 8 10 8 9 14 11 14 15 11 10 12 10 10 9 9 10 9 6 7 9 7 7 3 3 4 2
6 7 2 5 5 3 5 5 10 13 14 13 11 9 10 7 4 2 3 5 9 9 9 10 11 10 11 12 11 10 13 15 13 11 11 9 11 10 10 10 8 7 7 7 5 3 3 3 2
7 4 2 0 3 6 5 8 9 9 6 8 9 8 8 9 6 1 3 5 8 10 8 10 11 12 12 13 12 12 13 14 13 13 14 14 13 12 11 10 7 7 7 6 5 3 3 2 1
6 7 2 3 3 4 6 4 3 8 9 9 5 7 8 6 1 3 5 5 10 10 6 8 9 9 15 14 14 14 13 15 15 13 13 13 14 13 11 9 7 7 7 6 4 3 3 2 2
10 8 13 3 6 5 4 14 19 18 4 8 10 5 6 4 2 3 3 4 9 9 6 8 11 13 15 15 14 13 14 15 14 14 14 14 13 11 10 8 7 6 6 5 3 2 2 1 2
Wind_Direction
296 277 259 295 261 215 252 259 124 332 179 329 39 341 357 277 40 85 137 111 124 135 137 142 139 137 133 128 123 118 115 119 113 106 108 113 113 119 109 95 83 75 75 77 75 71 69 66 63
295 296 279 265 242 260 255 236 164 195 24 31 325 297 285 241 83 115 127 177 134 132 145 142 142 139 137 133 128 119 119 123 115 112 119 117 116 121 114 97 87 80 77 79 77 72 71 69 63
269 265 282 217 225 241 264 305 43 90 69 299 273 177 263 80 55 121 110 160 135 136 153 143 145 143 142 139 136 129 130 129 120 117 107 115 113 120 111 104 96 89 86 80 74 71 68 63 61
257 220 268 256 254 237 238 276 49 76 209 174 289 306 112 41 97 108 139 154 142 145 137 144 148 145 143 143 145 140 136 145 130 107 101 102 116 122 129 115 109 99 91 80 68 62 61 60 56
239 277 235 226 240 258 282 290 75 110 284 3 181 267 106 76 99 117 138 157 145 110 131 148 152 146 146 147 149 147 145 147 139 120 106 98 97 140 137 125 119 109 94 76 59 54 66 73 69
208 201 249 229 249 249 240 264 165 195 255 248 172 275 100 132 127 129 149 170 142 128 138 148 144 150 151 150 153 152 155 158 153 139 123 104 74 124 153 134 125 111 90 75 64 64 69 72 71
238 232 234 247 259 267 244 234 174 250 262 263 234 259 101 97 103 129 167 159 143 135 132 148 153 156 154 157 157 156 162 166 164 154 140 116 83 116 136 134 129 113 97 84 82 82 84 85 75
234 251 254 246 258 263 279 293 167 190 270 267 4 214 79 100 124 135 155 130 144 142 144 152 158 157 155 160 162 159 166 168 165 160 137 139 123 124 132 129 124 121 113 101 93 91 92 98 104
225 238 237 242 249 262 274 291 150 137 264 293 161 265 113 94 141 119 125 132 147 156 157 158 160 164 167 164 170 163 161 167 165 155 160 167 168 155 138 132 134 129 125 119 113 116 136 151 189
216 216 242 250 253 263 315 251 303 219 244 256 270 192 130 156 177 162 167 171 167 177 179 170 166 163 161 165 156 171 166 163 170 176 179 201 200 154 142 139 141 141 141 140 148 151 67 9 43
213 244 237 243 270 334 329 318 286 255 246 247 231 220 165 175 179 204 198 179 181 174 179 178 162 158 165 159 160 173 167 182 188 183 184 201 123 132 139 150 159 160 163 166 175 183 76 48 39
241 236 238 266 283 345 298 298 294 289 254 274 289 310 245 170 202 192 217 228 179 170 173 174 173 157 160 156 170 179 169 185 191 184 180 138 144 169 188 179 174 179 164 121 75 63 74 37 33
231 245 260 264 263 302 295 274 278 288 298 272 288 287 297 288 290 283 217 205 224 170 165 166 172 165 164 152 170 185 189 178 177 166 166 149 153 173 181 125 111 111 89 79 75 58 33 24 21
226 259 269 272 273 247 258 256 255 254 262 275 274 275 278 252 240 269 275 230 222 196 170 163 171 160 185 163 172 192 194 165 181 156 166 167 163 169 113 91 90 91 99 84 78 73 41 18 20
309 300 278 257 246 238 244 254 250 250 249 256 251 243 249 255 256 243 253 254 198 207 177 175 168 163 178 206 172 194 201 174 151 146 166 175 147 122 111 105 104 110 97 89 65 35 41 29 11
247 247 260 252 219 223 206 254 265 261 227 232 244 249 250 238 232 237 243 245 240 196 192 177 175 168 174 189 202 179 199 162 145 149 154 152 123 118 117 134 129 121 99 95 84 52 33 34 30
213 266 218 245 171 180 195 262 249 243 279 256 231 246 232 231 233 235 231 227 237 218 207 187 176 176 174 171 189 189 196 145 148 144 156 137 123 133 139 137 125 117 96 80 102 67 82 39 5
214 215 259 290 120 171 249 260 274 289 284 250 258 255 260 269 246 224 226 235 234 235 213 181 170 172 170 161 174 191 172 152 161 158 146 124 125 128 138 127 125 118 111 106 85 98 73 59 354
297 307 308 312 329 333 273 271 266 265 257 255 241 244 247 243 249 260 245 234 233 231 233 192 170 174 159 168 177 185 177 140 111 105 126 131 141 155 147 133 127 126 114 105 106 103 83 24 351
250 277 280 286 277 290 303 283 280 260 256 247 244 244 245 252 256 254 251 240 219 241 235 206 178 178 183 177 184 173 147 136 127 126 119 139 158 150 139 134 125 117 111 98 79 63 100 84 28
261 253 273 287 312 311 283 282 245 252 234 238 241 246 252 249 250 250 248 235 220 220 237 212 191 171 184 172 131 111 93 102 104 115 107 127 150 131 133 125 124 124 116 115 105 85 73 119 23
258 328 313 296 328 257 38 292 287 287 266 205 212 207 217 229 234 239 244 262 244 213 217 224 206 186 176 143 148 157 165 158 150 141 124 150 138 120 126 123 121 118 119 117 123 101 96 84 99
208 57 359 330 302 4 242 239 260 225 251 236 263 238 227 231 231 235 227 233 245 244 211 209 204 188 165 156 162 162 148 144 131 128 137 157 132 122 128 127 122 126 118 116 116 107 89 75 98
58 94 260 274 340 254 206 196 271 213 231 196 28 354 324 282 288 285 309 296 254 240 219 216 189 182 164 164 164 167 159 151 145 148 153 156 140 130 121 123 119 121 114 116 113 100 91 91 91
219 100 269 241 212 233 172 208 240 309 300 290 16 283 268 300 297 311 358 331 298 249 230 193 198 182 163 164 175 167 165 155 153 153 161 153 147 143 140 124 127 130 125 126 128 124 130 118 83
202 181 210 272 238 286 338 248 249 228 249 232 209 230 253 264 230 130 312 304 296 267 215 200 181 172 168 165 163 163 140 146 149 157 158 154 149 144 141 135 134 131 127 130 131 124 130 124 150
144 205 263 310 281 284 227 282 295 261 270 272 257 257 219 233 211 137 341 336 297 282 215 181 177 180 174 162 153 146 143 143 152 149 156 148 138 140 138 134 133 134 132 137 138 140 150 146 175
207 183 107 220 250 263 242 271 262 303 329 324 351 287 226 215 171 93 11 333 302 286 225 168 178 186 161 157 149 142 141 133 141 153 150 145 138 141 136 126 129 126 126 126 125 135 143 133 287
188 236 208 342 234 247 304 236 42 336 328 311 330 330 7 51 332 51 345 333 297 286 231 179 178 184 152 124 129 137 139 139 148 149 144 139 133 134 132 126 131 132 135 135 145 140 140 186 245
197 196 213 215 229 223 289 282 252 260 282 6 315 335 328 246 147 207 233 292 295 283 245 172 189 158 130 127 128 131 138 143 145 135 131 126 125 122 129 126 126 123 114 113 105 87 44 197 269